Dewpoint
40 40 40 39 39 38 37 37 36 35 35 34 33 32 31 30 30 30 30 30 30 30 30 30 29 29 29 29 30 31 32 33 33 34 35 35 35 35 35 36 36 36 36 36 36 36 36 36 37 37 37 37 38 38 38 38 39 39 39 39 39 39 40 39 39 39 39 39 39 39 39 39 39 39 39 39 39 39 39 39 39 39 39 40 40 41
39 39 38 38 37 36 35 35 35 34 33 31 30 29 28 28 28 29 30 30 30 30 29 28 28 27 27 27 29 30 31 32 33 34 35 35 35 35 35 35 35 35 35 35 35 36 36 36 36 36 37 37 37 37 37 37 38 38 38 38 38 39 39 39 39 39 39 39 39 39 38 38 38 38 38 38 39 39 39 39 39 39 39 40 41 42
38 38 37 37 36 35 34 34 34 33 32 31 30 30 29 30 32 33 34 33 32 30 30 29 28 26 26 26 28 30 31 32 33 34 34 34 35 35 35 35 35 35 35 35 35 35 35 36 36 36 36 36 36 36 36 36 36 37 37 37 37 37 37 37 37 37 37 37 37 37 37 37 37 37 37 38 38 38 38 38 39 39 40 41 41 42
38 37 38 37 36 35 34 34 33 33 33 33 33 33 34 35 35 35 35 34 32 30 30 28 26 25 24 25 26 29 30 31 32 33 34 34 34 34 34 34 34 34 35 35 35 35 35 35 35 35 36 35 35 35 35 35 35 35 35 35 35 35 35 35 36 36 36 36 36 36 36 36 36 37 37 37 38 38 38 39 39 40 40 41 41 42
37 37 37 37 36 35 35 35 34 34 34 35 35 35 35 35 35 34 32 31 30 28 27 26 25 24 24 24 26 28 30 31 32 32 33 33 33 33 33 34 34 34 34 34 35 35 35 35 35 35 35 35 35 35 35 35 35 35 35 35 35 35 35 35 35 35 35 35 35 35 35 35 36 36 36 37 38 38 39 39 39 40 40 41 41 42
37 37 37 36 35 35 35 35 34 34 34 34 33 33 33 33 32 31 30 28 27 26 26 25 25 24 24 24 26 27 29 30 31 31 31 32 32 32 33 33 33 33 34 34 34 34 35 35 35 35 35 34 34 34 34 34 34 34 34 34 34 34 34 34 34 34 34 34 35 35 35 35 35 36 36 37 37 38 39 39 39 40 40 41 41 42
36 36 36 35 35 34 34 33 33 33 32 32 32 31 30 30 30 29 29 27 26 25 24 24 25 25 24 25 26 26 28 29 30 30 30 31 31 31 32 32 33 33 33 33 34 34 34 34 34 34 34 34 34 34 34 33 33 33 33 33 33 33 33 33 34 34 34 34 34 35 35 35 35 36 36 36 37 38 38 39 39 39 39 40 41 41
35 35 35 34 33 32 31 31 30 30 31 31 30 30 29 28 28 28 28 28 27 26 25 24 24 24 24 24 25 25 26 27 28 28 28 29 30 30 30 31 32 32 32 32 33 33 33 33 33 33 33 33 33 33 33 33 32 32 32 32 32 32 33 33 33 34 34 34 35 35 35 35 35 36 36 36 37 37 38 39 39 39 39 40 40 41
34 33 33 32 31 30 30 28 28 28 29 29 29 28 27 26 26 26 27 27 28 27 25 23 23 23 24 25 25 25 25 26 26 26 26 27 27 28 30 30 31 31 31 31 31 32 32 32 32 32 32 32 32 32 32 31 31 31 31 31 32 32 33 33 34 34 34 35 35 35 35 35 36 36 36 36 37 37 37 38 39 39 39 39 40 40
33 32 31 31 31 30 29 27 26 27 28 27 27 27 26 25 24 23 24 25 26 26 25 24 23 23 23 25 26 26 25 26 26 27 28 28 28 29 30 30 30 30 30 30 30 31 31 31 30 30 30 31 31 31 30 30 30 30 30 31 32 32 33 33 34 34 35 35 35 35 35 36 36 36 36 36 37 37 37 37 38 38 39 39 39 39
32 31 30 29 29 29 28 26 26 26 27 26 26 26 26 24 23 23 21 22 23 24 24 23 23 23 23 24 24 25 24 25 25 26 28 29 29 30 29 29 28 28 29 29 29 29 29 29 29 30 30 30 30 30 29 29 29 30 30 31 32 32 33 33 34 34 35 35 35 35 35 36 36 36 36 36 36 36 37 37 37 37 38 38 38 39
31 30 29 28 28 28 27 26 26 26 26 26 26 25 25 25 25 24 21 21 21 21 22 23 24 24 24 24 23 23 24 24 24 25 26 27 27 27 27 26 26 26 26 26 27 27 27 28 28 28 28 28 28 28 28 28 29 30 30 31 32 32 33 33 34 34 34 35 35 35 35 35 35 35 36 36 36 36 36 36 36 36 36 37 37 38
30 30 30 29 29 28 26 26 26 26 26 25 24 24 24 25 25 25 23 22 22 22 23 23 23 24 25 25 24 23 23 23 24 24 25 25 25 25 24 24 23 23 23 24 24 25 26 26 27 27 27 27 27 27 27 28 29 30 30 31 32 32 33 33 33 34 34 34 35 35 35 35 35 35 35 35 35 35 35 35 35 35 36 36 36 37
30 30 30 29 29 28 27 27 26 26 25 25 25 25 26 25 25 24 24 23 23 24 24 24 23 24 25 25 24 24 24 24 24 24 24 24 24 25 24 23 22 22 22 22 22 23 25 26 26 26 26 26 26 26 27 28 30 30 31 31 32 32 33 33 33 33 34 34 34 34 34 35 35 35 35 35 35 35 35 35 35 35 35 36 36 36
30 30 30 29 28 27 27 26 26 25 25 25 25 25 25 25 24 24 23 22 23 24 25 24 23 23 24 24 24 24 24 24 23 22 22 23 24 25 25 23 22 22 22 22 22 23 25 25 24 24 24 25 26 26 27 29 30 31 31 32 32 32 32 33 33 33 33 33 34 34 34 34 34 35 35 35 35 35 35 35 35 35 35 35 35 36
30 30 30 29 28 26 26 26 25 24 24 25 25 24 24 24 24 24 23 23 23 24 24 23 22 22 24 25 26 25 25 24 23 22 21 21 23 24 24 23 22 22 22 22 23 23 25 24 23 23 24 25 26 27 28 29 30 31 31 32 32 32 32 32 32 33 33 33 33 33 34 34 34 34 34 34 35 35 35 35 35 35 35 35 35 35
30 30 29 28 26 25 25 24 24 24 25 24 25 25 25 24 24 24 24 24 24 24 23 23 22 22 22 24 26 26 26 24 23 22 21 21 22 24 25 24 23 22 22 22 22 23 23 23 23 24 25 26 27 28 29 30 30 31 31 32 32 32 32 32 32 32 32 33 33 33 33 34 34 34 34 34 34 34 34 34 35 35 35 35 35 35
29 28 28 26 25 24 24 23 24 24 25 24 24 25 25 25 25 25 25 25 24 24 24 24 23 23 22 22 24 26 27 24 22 21 21 21 21 23 25 25 23 22 22 22 22 23 23 23 24 25 26 27 28 28 29 30 30 31 31 32 32 32 32 32 32 32 32 32 33 33 33 33 34 34 34 34 34 34 34 34 34 34 35 35 35 35
27 26 26 25 24 24 23 23 23 23 23 23 24 24 25 25 26 26 25 25 25 25 24 24 24 24 23 22 23 24 26 24 22 21 21 21 21 22 24 24 23 22 22 22 22 23 23 25 26 27 27 27 28 28 29 30 30 31 31 31 31 31 31 31 32 32 32 32 33 33 33 33 33 33 33 33 34 34 34 34 34 34 35 35 35 35
25 24 24 24 23 23 23 23 23 24 24 25 25 25 25 26 26 26 26 26 25 25 25 25 24 24 23 23 23 24 24 23 22 21 21 21 21 22 23 23 22 21 21 22 22 23 23 25 26 26 26 27 28 28 29 30 30 30 31 31 31 31 31 31 32 32 32 32 32 33 33 33 33 33 33 33 33 33 34 34 34 34 35 35 35 35
23 23 23 23 23 22 22 23 24 25 26 27 27 26 26 26 26 25 25 25 25 25 25 25 24 24 24 23 23 23 23 22 21 21 21 21 21 22 23 22 21 21 21 21 22 23 23 24 25 25 26 27 28 28 29 30 30 30 30 30 30 31 31 31 31 32 32 32 32 32 32 32 33 33 33 33 33 33 33 34 34 34 34 35 35 35
22 22 24 24 23 23 24 25 26 27 28 29 28 27 26 26 26 25 25 25 25 25 25 25 24 24 23 22 22 22 23 22 21 21 21 21 21 21 23 22 21 21 21 21 22 23 23 24 24 25 26 27 28 28 29 29 30 30 30 30 30 30 31 31 31 32 32 32 32 32 32 32 32 32 32 33 33 33 33 34 34 34 34 34 34 35
23 23 24 25 25 25 26 26 27 28 29 29 29 27 27 26 26 26 26 26 25 25 25 24 24 23 23 22 22 22 22 22 21 21 21 21 21 21 22 22 21 21 21 21 22 22 23 23 23 24 26 27 28 28 29 29 29 30 30 30 30 30 31 31 31 31 31 31 32 32 32 32 32 32 32 32 33 33 33 33 33 34 34 34 34 34
25 25 25 26 27 27 27 28 28 28 29 29 28 28 29 28 27 26 26 26 25 24 24 23 22 22 22 22 21 21 22 22 21 21 21 21 21 21 21 21 21 21 21 22 22 23 23 23 23 24 25 27 28 28 28 29 29 29 30 30 30 30 31 31 31 31 31 31 31 31 31 32 32 32 32 32 32 33 33 33 33 33 33 33 33 33
26 26 27 27 29 29 28 28 28 28 29 28 28 28 28 27 27 26 25 24 23 22 21 21 21 21 21 21 21 21 22 22 21 21 21 21 21 21 21 21 21 21 21 22 23 23 23 23 23 24 25 26 27 28 28 28 29 29 30 30 30 30 30 30 30 31 31 31 31 31 31 31 32 32 32 32 32 32 32 32 33 33 33 33 33 33
29 29 29 30 30 30 30 29 29 29 30 29 28 27 26 26 25 24 23 22 21 21 21 21 21 21 21 21 21 21 22 22 21 21 21 21 21 21 22 22 22 21 22 22 23 23 23 23 23 24 25 26 26 27 28 28 29 29 30 30 30 30 30 30 30 30 30 30 31 31 31 31 31 32 32 32 32 32 32 32 32 32 32 32 32 32
31 31 31 30 30 30 30 30 30 30 30 29 28 26 25 24 23 22 21 21 21 21 21 21 21 21 22 21 21 21 22 21 21 21 21 21 21 21 22 22 22 22 22 22 23 24 24 24 24 24 24 25 25 26 27 28 29 29 30 30 30 30 30 30 30 30 30 30 30 31 31 31 31 31 32 32 32 32 32 32 32 32 32 31 31 31
31 31 30 30 30 29 29 29 30 30 30 30 29 27 25 23 22 21 21 21 21 21 21 21 21 21 21 21 21 21 22 21 21 21 21 21 21 21 22 22 22 22 22 22 23 25 25 25 24 24 24 25 25 26 27 28 29 29 29 29 29 29 29 30 30 30 30 30 30 30 31 31 31 31 31 31 32 32 32 32 32 31 31 30 30 29
29 29 29 28 27 27 27 27 28 29 30 29 28 26 24 22 21 21 21 21 21 21 21 21 21 21 21 21 21 22 22 21 21 21 22 21 21 22 23 22 22 22 22 22 23 24 24 25 25 25 24 25 25 26 27 28 28 28 28 29 29 29 29 29 29 30 30 30 30 30 30 31 31 31 31 31 31 31 31 31 31 31 30 30 29 29
25 25 25 25 25 25 25 25 26 26 28 28 27 26 24 23 22 22 22 22 21 21 21 21 21 21 21 21 21 22 22 21 21 22 22 22 22 22 22 22 22 22 23 22 22 22 23 24 25 25 25 25 25 25 26 26 26 27 27 28 28 28 29 29 29 29 30 30 30 30 30 30 30 31 31 31 31 31 31 31 31 30 29 29 28 28
22 22 22 22 23 23 24 24 24 24 25 26 25 25 24 23 23 23 23 22 22 22 21 21 21 21 21 21 21 21 21 22 23 23 23 22 22 22 22 22 22 23 23 22 21 21 21 23 24 25 25 25 25 25 25 25 25 26 26 26 26 27 28 29 29 29 29 30 30 30 30 30 30 30 30 30 30 31 31 31 31 30 29 28 28 28
22 21 21 22 22 22 22 22 22 23 23 23 24 24 24 24 24 23 23 23 23 22 22 22 22 21 21 21 21 21 21 22 23 24 24 23 23 23 23 22 22 22 23 23 22 21 21 21 23 24 24 25 25 25 25 25 25 25 25 26 26 26 28 28 28 28 29 29 30 30 30 30 30 30 30 30 30 30 30 30 30 30 29 28 28 28
21 21 21 21 21 21 22 22 22 22 22 22 23 23 24 24 24 24 24 24 23 23 23 22 22 22 22 21 21 21 22 23 24 24 25 24 23 23 23 23 22 22 23 23 23 22 22 22 22 23 24 24 25 25 25 26 26 26 26 26 26 26 27 28 28 27 28 28 29 29 30 30 30 30 30 30 30 30 30 30 30 30 30 28 28 28
22 22 21 21 21 21 22 22 22 22 22 22 23 23 23 24 24 24 25 24 24 24 24 23 23 22 22 22 22 22 22 23 24 25 25 25 24 23 23 23 23 22 23 23 23 23 22 22 22 23 23 24 24 25 25 25 26 26 26 26 26 26 26 26 26 27 27 28 28 28 29 29 29 30 29 30 30 30 30 30 30 30 30 29 28 28
22 22 22 22 21 21 22 22 22 22 22 22 22 22 23 23 23 24 25 25 25 25 25 24 24 23 23 22 22 22 22 22 24 25 26 25 25 24 23 23 23 23 23 23 22 22 22 22 23 23 23 23 23 24 25 25 26 26 26 26 26 26 26 26 26 26 26 27 27 27 27 28 28 28 28 29 29 30 30 30 30 30 30 30 29 28
22 22 22 22 21 21 22 22 22 22 22 22 22 23 23 23 24 24 25 25 25 25 25 25 25 25 24 24 23 23 23 23 24 25 26 26 25 25 24 23 23 23 23 23 23 22 22 22 23 23 23 23 23 23 24 25 26 26 26 26 26 26 27 27 27 26 26 26 26 26 27 27 27 27 28 28 29 30 30 30 30 30 30 30 30 29
22 22 22 22 21 21 22 22 22 22 22 22 23 23 24 24 24 24 25 26 26 26 25 26 26 26 26 26 25 24 24 24 25 25 26 26 26 25 24 24 24 24 24 24 23 23 23 22 22 22 22 22 22 23 24 25 25 25 25 26 26 26 27 27 27 27 27 26 26 26 27 27 27 27 27 28 29 29 29 29 29 29 29 29 29 29
22 22 22 22 22 22 22 22 22 22 22 22 22 23 23 23 24 24 24 25 25 25 25 25 25 25 26 26 26 26 26 25 26 26 26 26 26 26 25 25 25 25 25 25 24 24 24 23 22 22 21 22 23 23 24 24 24 24 25 26 26 26 26 27 27 27 27 26 27 27 27 27 27 27 27 27 27 27 27 27 27 28 28 29 29 29
21 21 21 22 21 21 21 21 21 22 22 22 23 23 23 24 24 25 24 24 25 25 25 25 25 25 26 27 27 27 27 28 29 29 29 29 28 27 26 25 25 25 25 25 25 25 24 23 23 22 22 22 22 23 24 24 24 24 25 25 26 26 26 27 27 27 27 27 27 27 27 26 26 26 26 26 26 26 26 26 26 27 27 27 27 28
21 21 21 21 21 21 21 21 22 22 22 23 23 23 23 24 24 24 24 24 25 25 26 26 26 26 26 26 26 26 27 29 30 30 30 31 30 29 27 26 25 25 25 25 25 25 25 24 24 23 23 23 23 23 24 24 24 25 25 25 25 25 26 26 26 27 27 26 26 26 26 26 26 25 25 25 25 25 25 25 26 26 26 26 26 26
21 21 21 21 21 21 22 22 22 22 23 23 23 23 23 23 23 24 24 25 25 25 25 26 26 26 26 27 27 26 26 29 29 29 30 31 31 30 28 26 26 26 25 25 25 25 25 25 24 24 24 24 24 24 24 24 25 25 26 25 24 25 26 26 26 26 26 26 26 26 26 25 25 25 25 25 25 25 26 25 26 26 26 26 26 25
21 21 21 21 21 21 21 22 22 23 23 23 23 23 23 23 23 24 24 25 25 25 25 25 25 25 26 26 26 27 27 28 29 30 31 31 30 30 29 27 26 26 26 26 25 25 25 26 25 25 25 25 25 24 24 24 25 25 26 25 25 25 26 26 26 26 26 25 25 25 26 25 24 24 25 25 25 25 26 26 26 26 26 26 25 25
21 21 21 21 21 21 21 22 23 23 23 23 23 23 23 23 24 24 24 24 24 24 24 24 24 25 25 25 25 26 27 29 29 28 29 30 30 30 29 28 27 27 27 26 26 26 26 26 26 26 25 25 25 25 24 25 25 25 25 25 25 25 24 24 25 25 25 25 25 25 25 24 24 25 25 25 25 25 26 26 26 26 26 26 25 25
21 21 21 21 21 21 22 22 22 22 23 23 23 23 23 24 24 24 24 24 24 24 24 24 24 24 24 24 25 25 26 27 28 28 28 28 30 30 29 28 27 27 27 26 26 25 25 25 25 25 26 26 26 25 25 25 25 24 24 25 25 25 24 24 24 25 24 25 25 25 25 25 25 25 25 25 25 25 25 25 25 25 26 25 25 25
20 20 21 21 21 22 22 22 22 22 22 23 23 23 24 24 24 24 24 24 24 24 24 24 24 23 23 23 24 24 25 25 26 27 28 28 28 29 29 28 27 27 26 26 26 26 25 25 25 25 26 26 26 25 25 24 24 24 25 25 25 25 24 24 24 24 24 24 24 24 25 26 26 25 25 24 24 24 24 24 24 25 25 25 25 24
20 20 21 21 21 21 21 22 22 22 22 23 23 23 24 24 24 24 24 24 24 23 23 23 23 23 23 23 23 23 24 24 25 25 26 26 27 27 27 27 27 26 26 26 26 26 26 26 26 26 26 25 25 25 24 24 24 24 24 24 24 24 24 24 24 24 24 24 24 24 25 26 26 25 24 24 24 24 24 24 24 24 24 24 24 24
20 20 20 20 21 21 21 21 21 22 22 23 23 23 23 24 24 24 24 24 23 23 23 23 23 23 22 23 23 23 23 23 24 24 25 25 25 26 26 26 27 27 26 26 26 26 26 27 27 26 26 25 24 24 24 24 24 24 24 24 24 23 23 23 23 24 24 24 24 25 26 26 26 24 24 23 23 23 23 24 24 24 24 24 24 24
20 20 20 20 20 20 21 21 21 22 22 23 23 23 23 23 24 24 23 23 23 23 23 22 22 22 22 22 23 23 23 23 23 24 24 24 24 25 25 25 26 26 26 26 26 26 26 28 28 28 26 25 24 24 24 24 24 24 24 24 24 23 23 23 23 24 24 25 26 27 27 26 25 24 24 23 23 23 23 23 24 24 24 24 24 24
20 20 20 20 20 20 20 21 21 21 21 22 22 22 23 23 23 23 23 23 22 22 22 22 22 22 22 22 22 23 23 23 23 23 23 23 24 24 24 25 25 25 25 26 26 26 26 27 27 27 26 25 24 24 24 24 24 24 24 24 24 23 23 23 23 23 24 25 26 28 28 26 25 24 24 24 23 23 22 22 23 23 24 24 24 24
20 20 20 20 20 20 20 20 21 21 21 21 21 21 22 22 23 23 22 22 22 22 22 22 21 21 21 21 22 22 23 23 23 23 23 23 23 23 24 24 24 24 24 24 24 24 24 25 25 26 26 26 26 25 24 24 24 24 24 23 23 23 23 23 23 23 24 24 26 27 28 26 26 25 24 24 23 22 22 22 22 23 23 24 24 24
19 19 19 19 19 20 20 20 20 21 21 21 21 21 21 22 22 22 22 22 22 22 21 21 21 21 21 21 22 22 22 22 22 22 22 23 23 23 23 24 24 24 23 23 22 22 21 21 21 22 23 25 25 25 24 23 23 23 23 23 23 23 23 23 23 23 24 24 25 25 26 26 25 24 24 23 22 22 21 21 22 22 23 23 23 23